User: anonymous   Login
Location: Lourdes
(43.1000°N, 0.0500°W)
Time: 08:24:58
(UTC+00:00)
Language:

Cosmos 1933 Rocket - Orbit

View from above orbital plane
View from above orbital plane
View from above satellite
View from above satellite

Ground track
Ground track

The orbit data is extracted from the following two-line orbital elements,

1 18959U 88020B   21065.75250709  .00000079  00000-0  66566-5 0  9999
2 18959  82.5346  81.2429 0016278 341.5254  18.5368 14.83468634760906
Epoch (UTC): 06 March 2021 18:03:36
Eccentricity: 0.0016278
inclination: 82.5346°
perigee height: 607 km
apogee height: 630 km
right ascension of ascending node: 81.2429°
argument of perigee: 341.5254°
revolutions per day: 14.83468634
mean anomaly at epoch: 18.5368°
orbit number at epoch: 76090

The dashed part of the orbit path shows where the satellite is in the earth's shadow,  

DLR